Location: Pella
(41.4080°N, 92.9160°W)
Time: 12:52:18
(UTC-05:00)

Iridium 91 - Visible Passes

Search period start: 01 April 2015 00:00
Search period end: 11 April 2015 00:00
Orbit: 776 x 779 km, 86.4° (Epoch: 01 April)

Date Brightness Start Highest point End Pass type
(mag) Time Alt. Az. Time Alt. Az. Time Alt. Az.
01 Apr 6.8 05:50:17 10° SSE 05:55:11 44° E 06:00:09 10° NNE visible
02 Apr 7.9 05:17:44 10° SE 05:21:49 25° E 05:26:03 10° NNE visible
03 Apr 8.6 04:46:14 10° ESE 04:48:33 13° ENE 04:51:10 10° NE visible
04 Apr 6.0 05:50:05 10° S 05:55:13 65° E 06:00:24 10° N visible
05 Apr 7.2 05:17:10 10° SSE 05:21:48 35° E 05:26:32 10° NNE visible
06 Apr 8.1 04:44:55 10° SE 04:48:29 20° E 04:52:13 10° NE visible
07 Apr 8.7 04:14:40 10° E 04:15:15 10° ENE 04:16:10 10° ENE visible
07 Apr 5.5 05:50:05 10° S 05:55:17 88° W 06:00:32 10° N visible
08 Apr 6.4 05:16:49 10° SSE 05:21:48 50° E 05:26:52 10° NNE visible
09 Apr 7.5 04:44:07 10° SE 04:48:26 28° E 04:52:51 10° NNE visible
10 Apr 8.3 04:12:18 10° ESE 04:15:08 15° E 04:18:13 10° NE visible
10 Apr 5.6 05:50:15 10° SSW 05:55:23 61° W 06:00:34 10° N visible
